"Pseudo-MPEC" for P113t4h

Created 2020 Aug 6 7:07:15 UT using Find_Orb

Click here for an explanation of pseudo-MPECs

 
 Astrometry: 
     P113t4h  C2020 08 01'+3Wgm#XTk\1pV!%1xnH.pwR!o9Br7ZyBGVcn4AH%WZvg[Uy3#!vF52
     P113t4h  C2020 08 01NyNOngKgX_@-Q=!e8JDp*t7?*j,-l(5EVdmx64VOU1\,N^KgbI7FF52
     P113t4h  C2020 08 01D(?(sK5eT%0di#bY8s/G*ES2]XSE'jE%Md-F6w1ju.ERq%jjhkNgF52
     P113t4h  C2020 08 01D`KV:J^^pc14K1JHvnJq#o$NNnrp:F88`coTg-m7pXLAjvCfEm8=F52
     P113t4h  C2020 08 01Pkd$T=bqfq^sPCv?@RbawVySMo)r3_4laBc$9OORHm(ki^d06MqhF51
     P113t4h  C2020 08 01]JA0s%(,qx9a^S63_8g^I%HY;OAstrometry*]2.YB'8%4Vv265NF51
     P113t4h  C2020 08 01tBa'WgHokM=$Cm/ZY=9y+[3bWyRFM'Clh$#0Mr!Ti%w6hXp`KL_WF51
     P113t4h  C2020 08 01-LsKKdSRaEuf_9t:m=?ETbWJ(varedacted;_]3X!8^?kj'j?ml$F51
     P113t4h 1C2020 08 02`@-^8,8cVl8=+O*PvoBFP2fwYj]S/E7!Q)U;y1a7(lff0pbf@*3J658
     P113t4h 1C2020 08 02qyHPC_),*u-6XbQXM8IU^jAo`*5ZclickhH+_!S5ElsQwH9here3658
     P113t4h 1C2020 08 02U8)0^n,Z=FdS[RUflWs'VeT-for)]VGO_1kwQWwxuPY(`yt=rUs7658
     P113t4h 1C2020 08 020ZTf5]Ik_S*pD'Pv9(N4Xapr`jexplanation52bI0w#v2;#TS-$658
     P113t4h 1C2020 08 02QhUM']Upo@hV1Wh1@8u=oK)dK,XmC05R7=img8c-Z@rl.]22)J^f658

Station data:
(658) Dominion Astrophysical Observatory  (N48.519987 W123.417000)
   Canada/BritColumbia. 1.82-m Plaskett reflector.
(F51) Pan-STARRS 1, Haleakala  (N20.707235 W156.255910)  US/Hawaii.
   Observers N. Primak, A. Schultz, S. Watters, J. Thiel, T. Goggia. Measurer
   PS1 Science Consortium. 1.8-m Ritchey-Chrétien + CCD.
(F52) Pan-STARRS 2, Haleakala  (N20.707384 W156.255910)  US/Hawaii. 1.8-m
   Ritchey-Chrétien + CCD.

Orbital elements:  P113t4h
   Perihelion 2020 Sep 19.039624 +/- 1.16 TT =  0:57:03 (JD 2459111.539624)
Epoch 2020 Aug  2.0 TT = JDT 2459063.5   Earth MOID: 0.0217   Me: 0.0354
M 346.42026835 +/- 6                (J2000 ecliptic)          AutoNEOCP
n   0.28267772 +/- 0.132            Peri.  302.10323 +/- 4.3
a   2.29936714 +/- 0.716            Node   137.69805 +/- 0.31
e   0.8797653 +/- 0.0318            Incl.   78.00411 +/- 3.9
P   3.49                   H 22.9   G  0.15   U 11.4  
q 0.27646369 +/- 0.0174    Q 4.32227060 +/- 1.84
From 13 observations 2020 Aug. 1-2 (20.1 hr); mean residual 0".16
Residuals in arcseconds: 
200801 F52  .10-  .09-    200801 F51  .01-  .05+    200802 658  .17-  .35-    
200801 F52  .04-  .14+    200801 F51  .09-  .03+    200802 658  .03+  .24+    
200801 F52  .07-  .03-    200801 F51  .00   .06+    200802 658  .25+  .17+    
200801 F52  .35+  .05-    200802 658  .03+  .25+    
200801 F51  .05-  .09-    200802 658  .13-  .32-    

Ephemerides (geocentric):
Date (UTC) HH   RA              Dec         delta   r     elong  mag " sig PA
---- -- -- --  -------------   -----------  ------ ------ -----  --- ---- ---
2020 08 06 07  23 08 43.407   +39 08 02.35  .09142 1.0593 117.3 20.0  170   5
2020 08 06 08  23 08 50.143   +39 17 50.65  .09038 1.0585 117.2 19.9  177   5
2020 08 06 09  23 08 57.063   +39 27 52.47  .08934 1.0578 117.0 19.9  185   5
2020 08 06 10  23 09 04.173   +39 38 08.30  .08831 1.0571 116.9 19.9  192   5
2020 08 06 11  23 09 11.483   +39 48 38.63  .08727 1.0564 116.8 19.9  200   5
2020 08 06 12  23 09 19.001   +39 59 23.95  .08624 1.0557 116.6 19.8  209   5
2020 08 06 13  23 09 26.737   +40 10 24.80  .08520 1.0550 116.5 19.8  217   5
2020 08 06 14  23 09 34.701   +40 21 41.75  .08417 1.0543 116.4 19.8  227   5
2020 08 06 15  23 09 42.902   +40 33 15.38  .08314 1.0535 116.2 19.8  236   5
2020 08 06 16  23 09 51.353   +40 45 06.30  .08211 1.0528 116.1 19.8  246   5
2020 08 06 17  23 10 00.065   +40 57 15.14  .08108 1.0521 115.9 19.7  257   5
2020 08 06 18  23 10 09.051   +41 09 42.59  .08005 1.0514 115.7 19.7  268   6
2020 08 06 19  23 10 18.324   +41 22 29.35  .07902 1.0507 115.6 19.7  279   6
2020 08 06 20  23 10 27.899   +41 35 36.17  .07800 1.0500 115.4 19.7  291   6
2020 08 06 21  23 10 37.791   +41 49 03.80  .07697 1.0492 115.2 19.6  304   6
2020 08 06 22  23 10 48.016   +42 02 53.09  .07595 1.0485 115.0 19.6  317   6
2020 08 06 23  23 10 58.593   +42 17 04.88  .07492 1.0478 114.8 19.6  331   6
2020 08 07 00  23 11 09.539   +42 31 40.07  .07390 1.0471 114.6 19.6  346   6
2020 08 07 01  23 11 20.876   +42 46 39.63  .07288 1.0464 114.4 19.5  361   6
2020 08 07 02  23 11 32.624   +43 02 04.54  .07186 1.0457 114.2 19.5  377   6
2020 08 07 03  23 11 44.806   +43 17 55.85  .07085 1.0449 114.0 19.5  394   6
2020 08 07 04  23 11 57.449   +43 34 14.69  .06983 1.0442 113.8 19.5  412   6
2020 08 07 05  23 12 10.579   +43 51 02.22  .06882 1.0435 113.6 19.4  430   6
2020 08 07 06  23 12 24.224   +44 08 19.66  .06780 1.0428 113.3 19.4  450   6
2020 08 07 07  23 12 38.417   +44 26 08.33  .06679 1.0421 113.1 19.4  471   7
2020 08 07 08  23 12 53.192   +44 44 29.60  .06578 1.0413 112.8 19.4  492   7
2020 08 07 09  23 13 08.585   +45 03 24.92  .06478 1.0406 112.5 19.3  515   7
2020 08 07 10  23 13 24.637   +45 22 55.82  .06377 1.0399 112.3 19.3  540   7
2020 08 07 11  23 13 41.390   +45 43 03.93  .06277 1.0392 112.0 19.3  565   7
2020 08 07 12  23 13 58.894   +46 03 50.96  .06177 1.0385 111.7 19.3  592   7
2020 08 07 13  23 14 17.200   +46 25 18.73  .06077 1.0378 111.4 19.2  620   7
2020 08 07 14  23 14 36.364   +46 47 29.17  .05978 1.0370 111.1 19.2  650   7
2020 08 07 15  23 14 56.450   +47 10 24.31  .05878 1.0363 110.7 19.2  682   7
2020 08 07 16  23 15 17.525   +47 34 06.31  .05779 1.0356 110.4 19.2  715   7
2020 08 07 17  23 15 39.665   +47 58 37.47  .05681 1.0349 110.0 19.1  751   7
2020 08 07 18  23 16 02.953   +48 24 00.23  .05582 1.0341 109.7 19.1  788   8
2020 08 07 19  23 16 27.483   +48 50 17.15  .05484 1.0334 109.3 19.1  828   8
2020 08 07 20  23 16 53.355   +49 17 30.98  .05386 1.0327 108.9 19.1  870   8
2020 08 07 21  23 17 20.684   +49 45 44.64  .05289 1.0320 108.5 19.0  915   8
2020 08 07 22  23 17 49.597   +50 15 01.21  .05192 1.0313 108.1 19.0  962   8
2020 08 07 23  23 18 20.236   +50 45 23.98  .05095 1.0305 107.6 19.0 1013   8
2020 08 08 00  23 18 52.760   +51 16 56.45  .04999 1.0298 107.1 18.9 1066   8
2020 08 08 01  23 19 27.351   +51 49 42.33  .04903 1.0291 106.6 18.9 1123   8
2020 08 08 02  23 20 04.211   +52 23 45.55  .04808 1.0284 106.1 18.9 1183   9
2020 08 08 03  23 20 43.572   +52 59 10.33  .04713 1.0276 105.6 18.9 1247   9
2020 08 08 04  23 21 25.697   +53 36 01.10  .04619 1.0269 105.1 18.8 1316   9
2020 08 08 05  23 22 10.887   +54 14 22.61  .04525 1.0262 104.5 18.8 1389   9
2020 08 08 06  23 22 59.491   +54 54 19.87  .04432 1.0255 103.9 18.8 1466   9